Regional Weather Roundup
Issued by NWS Binghamton, NY

Home | Current Version | Previous Version | Text Only | Print | Product List | Glossary On
Versions: 1 2 3 4 5 6 7 8 9 10 11 12 13 14 15 16 17 18 19 20 21 22 23 24 25 26 27 28 29 30 31 32 33 34 35 36 37 38 39 40 41 42 43 44 45 46 47 48 49 50
000
ASUS41 KBGM 012010
RWRBGM

REGIONAL WEATHER ROUNDUP
NATIONAL WEATHER SERVICE BINGHAMTON NY
300 PM EST WED MAR 01 2017

Note: "fair" indicates few or no clouds below 12,000 feet with no
significant weather and/or obstructions to visibility.

* = Station(s) that does not report precipitation, such as rain,
snow, etc, also no thunder or fog.

NYZ009-015>018-022>025-036-037-044>046-055>057-062-012100
...Central New York...

CITY           SKY/WX    TMP DP  RH WIND       PRES   REMARKS
Binghamton     CLOUDY    59  51  75 SW16G26   29.36F
Cortland       PTSUNNY   61  52  72 SW16G23   29.33F
Dansville      CLOUDY    65  46  50 SW8G23    29.32S
Elmira         CLOUDY    64  48  56 SW18G24   29.35F
Seneca Falls   CLOUDY    64  48  55 SW10      29.33R
Ithaca         CLOUDY    63  49  60 S21G32    29.34F
Hamilton       MOSUNNY   61  52  72 SW9G16    29.33F
Monticello     CLOUDY    59  54  82 S14       29.50F
Norwich        SUNNY     61  52  72 S12G26    29.35F
Oneonta        MOSUNNY   57  52  82 S8G18     29.37F
Penn Yan       CLOUDY    64  46  52 SW16G23   29.33R
Rome           CLOUDY    64  53  67 S12G21    29.32F
Sidney         MOSUNNY   61  54  77 SW12G17   29.36F
Syracuse       LGT RAIN  64  52  64 SW13      29.29F
$$

PAZ038>040-043-044-047-048-072-012100
...Northeast Pennsylvania...

CITY           SKY/WX    TMP DP  RH WIND       PRES   REMARKS
Hazleton       CLOUDY    59  55  88 S7        29.51F
Scranton       CLOUDY    63  56  78 SW13G21   29.44F
$$
&&
KEY
WCI = Wind Chill Index
VSB = Visibility
HX  = Heat Index
$$



USA.gov is the U.S. government's official web portal to all federal, state and local government web resources and services.